• In Kazakhstan
  • List of Countries
  • For 7 days
  • Water Temperature
  • Satellite Maps
  • Weather Map
  • News
  • Weather Widgets
  • user-avatar
    Login

    Hourly Weather Río Gallegos

    Today, 21 November, Wednesday

    Time Temperature Precipitation Wind Pressure Humidity
    00:00 +5°C° 0 mm 9 mps 740 mmHg 62%
    01:00 +4°C° 0 mm 8 mps 740 mmHg 64%
    02:00 +4°C° 0 mm 8 mps 740 mmHg 65%
    03:00 +4°C° 0 mm 8 mps 741 mmHg 67%
    04:00 +2°C° 0 mm 8 mps 741 mmHg 68%
    05:00 +3°C° 0 mm 9 mps 742 mmHg 61%
    06:00 +6°C° 0 mm 10 mps 742 mmHg 54%
    07:00 +7°C° 0 mm 10 mps 742 mmHg 47%
    08:00 +7°C° 0 mm 9 mps 743 mmHg 44%
    09:00 +8°C° 0 mm 9 mps 743 mmHg 40%
    10:00 +10°C° 0 mm 8 mps 743 mmHg 37%
    11:00 +10°C° 0 mm 8 mps 744 mmHg 37%
    12:00 +10°C° 0 mm 8 mps 744 mmHg 37%
    13:00 +10°C° 0 mm 7 mps 744 mmHg 37%
    14:00 +10°C° 0 mm 7 mps 745 mmHg 37%
    15:00 +10°C° 0 mm 7 mps 745 mmHg 37%
    16:00 +10°C° 0 mm 7 mps 745 mmHg 37%
    17:00 +10°C° 0.1 mm 7 mps 746 mmHg 41%
    18:00 +9°C° 0.1 mm 7 mps 747 mmHg 44%
    19:00 +8°C° 0.1 mm 7 mps 748 mmHg 47%
    20:00 +8°C° 0.1 mm 7 mps 749 mmHg 51%
    21:00 +6°C° 0.1 mm 7 mps 750 mmHg 54%
    22:00 +5°C° 0.1 mm 7 mps 750 mmHg 57%
    23:00 +4°C° 0 mm 7 mps 751 mmHg 60%

    Tomorrow, 22 November, Thursday

    Time Temperature Precipitation Wind Pressure Humidity
    00:00 +4°C° 0 mm 7 mps 751 mmHg 62%
    01:00 +3°C° 0 mm 7 mps 751 mmHg 64%
    02:00 +3°C° 0 mm 6 mps 751 mmHg 63%
    03:00 +3°C° 0 mm 5 mps 752 mmHg 61%
    04:00 +3°C° 0 mm 5 mps 752 mmHg 60%
    05:00 +4°C° 0 mm 6 mps 752 mmHg 55%
    06:00 +6°C° 0 mm 8 mps 752 mmHg 49%
    07:00 +7°C° 0 mm 9 mps 751 mmHg 44%
    08:00 +10°C° 0 mm 9 mps 751 mmHg 42%
    09:00 +11°C° 0 mm 10 mps 751 mmHg 39%
    10:00 +13°C° 0 mm 10 mps 751 mmHg 36%
    11:00 +13°C° 0 mm 10 mps 751 mmHg 36%
    12:00 +14°C° 0 mm 10 mps 751 mmHg 35%
    13:00 +14°C° 0 mm 10 mps 751 mmHg 35%
    14:00 +14°C° 0 mm 10 mps 751 mmHg 35%
    15:00 +14°C° 0 mm 10 mps 751 mmHg 35%
    16:00 +14°C° 0 mm 11 mps 751 mmHg 35%
    17:00 +13°C° 0 mm 10 mps 751 mmHg 37%
    18:00 +12°C° 0 mm 9 mps 752 mmHg 40%
    19:00 +12°C° 0 mm 8 mps 752 mmHg 43%
    20:00 +11°C° 0 mm 8 mps 752 mmHg 43%
    21:00 +11°C° 0 mm 8 mps 752 mmHg 44%
    22:00 +10°C° 0 mm 9 mps 752 mmHg 45%
    23:00 +10°C° 0 mm 8 mps 752 mmHg 46%

    Day after tomorrow, 23 November, Friday

    Time Temperature Precipitation Wind Pressure Humidity
    00:00 +10°C° 0 mm 8 mps 752 mmHg 47%
    01:00 +10°C° 0 mm 7 mps 752 mmHg 47%
    02:00 +9°C° 0 mm 6 mps 752 mmHg 49%
    03:00 +9°C° 0 mm 5 mps 752 mmHg 51%
    04:00 +8°C° 0 mm 5 mps 751 mmHg 52%
    05:00 +10°C° 0 mm 6 mps 751 mmHg 48%
    06:00 +11°C° 0 mm 7 mps 751 mmHg 44%
    07:00 +13°C° 0 mm 8 mps 751 mmHg 39%
    08:00 +13°C° 0 mm 8 mps 751 mmHg 39%
    09:00 +15°C° 0 mm 8 mps 751 mmHg 38%
    10:00 +15°C° 0 mm 8 mps 751 mmHg 37%
    11:00 +15°C° 0 mm 8 mps 751 mmHg 37%
    12:00 +16°C° 0 mm 7 mps 750 mmHg 37%
    13:00 +16°C° 0 mm 7 mps 750 mmHg 37%
    14:00 +16°C° 0 mm 8 mps 750 mmHg 37%
    15:00 +16°C° 0 mm 9 mps 750 mmHg 36%
    16:00 +16°C° 0 mm 9 mps 750 mmHg 36%
    17:00 +15°C° 0 mm 9 mps 750 mmHg 41%
    18:00 +13°C° 0 mm 8 mps 751 mmHg 45%
    19:00 +11°C° 0 mm 8 mps 751 mmHg 50%
    20:00 +11°C° 0 mm 6 mps 752 mmHg 53%
    21:00 +10°C° 0 mm 5 mps 752 mmHg 56%
    22:00 +10°C° 0 mm 3 mps 752 mmHg 60%
    23:00 +9°C° 0 mm 3 mps 752 mmHg 61%

    24 November, Saturday

    Time Temperature Precipitation Wind Pressure Humidity
    00:00 +9°C° 0 mm 3 mps 751 mmHg 62%
    01:00 +9°C° 0 mm 3 mps 751 mmHg 63%
    02:00 +8°C° 0.2 mm 4 mps 751 mmHg 66%
    03:00 +8°C° 0.2 mm 5 mps 751 mmHg 68%
    04:00 +8°C° 0.2 mm 7 mps 750 mmHg 71%
    05:00 +9°C° 0.1 mm 8 mps 750 mmHg 61%
    06:00 +10°C° 0.1 mm 9 mps 750 mmHg 51%
    07:00 +11°C° 0.1 mm 10 mps 751 mmHg 42%
    08:00 +12°C° 0 mm 10 mps 750 mmHg 41%
    09:00 +12°C° 0 mm 10 mps 750 mmHg 41%
    10:00 +12°C° 0 mm 10 mps 750 mmHg 40%
    11:00 +13°C° 0.1 mm 10 mps 750 mmHg 38%
    12:00 +13°C° 0.1 mm 11 mps 750 mmHg 36%
    13:00 +14°C° 0.1 mm 12 mps 750 mmHg 35%
    14:00 +13°C° 0 mm 12 mps 750 mmHg 35%
    15:00 +13°C° 0 mm 11 mps 751 mmHg 36%
    16:00 +13°C° 0 mm 11 mps 751 mmHg 36%
    17:00 +12°C° 0 mm 11 mps 752 mmHg 39%
    18:00 +11°C° 0 mm 10 mps 752 mmHg 43%
    19:00 +11°C° 0 mm 10 mps 753 mmHg 46%
    20:00 +10°C° 0 mm 8 mps 753 mmHg 50%
    21:00 +9°C° 0 mm 7 mps 754 mmHg 54%
    22:00 +8°C° 0 mm 6 mps 754 mmHg 59%
    23:00 +8°C° 0 mm 6 mps 754 mmHg 56%

    25 November, Sunday

    Time Temperature Precipitation Wind Pressure Humidity
    00:00 +8°C° 0 mm 7 mps 754 mmHg 53%
    01:00 +7°C° 0 mm 8 mps 753 mmHg 50%
    02:00 +7°C° 0 mm 8 mps 753 mmHg 51%
    03:00 +8°C° 0 mm 7 mps 753 mmHg 51%
    04:00 +8°C° 0 mm 7 mps 754 mmHg 51%
    05:00 +9°C° 0 mm 8 mps 754 mmHg 48%
    06:00 +9°C° 0 mm 10 mps 754 mmHg 45%
    07:00 +10°C° 0 mm 12 mps 754 mmHg 42%
    08:00 +10°C° 0 mm 12 mps 755 mmHg 44%
    09:00 +12°C° 0 mm 12 mps 755 mmHg 45%
    10:00 +12°C° 0 mm 12 mps 755 mmHg 47%
    11:00 +12°C° 0 mm 12 mps 755 mmHg 45%
    12:00 +13°C° 0 mm 13 mps 755 mmHg 44%
    13:00 +13°C° 0 mm 13 mps 755 mmHg 43%
    14:00 +13°C° 0 mm 13 mps 756 mmHg 44%
    15:00 +12°C° 0 mm 13 mps 756 mmHg 45%
    16:00 +12°C° 0 mm 12 mps 757 mmHg 47%
    17:00 +12°C° 0 mm 12 mps 757 mmHg 49%
    18:00 +11°C° 0 mm 11 mps 758 mmHg 51%
    19:00 +9°C° 0 mm 10 mps 758 mmHg 54%
    20:00 +10°C° 0 mm 9 mps 759 mmHg 56%
    21:00 +9°C° 0 mm 8 mps 759 mmHg 58%
    22:00 +7°C° 0 mm 8 mps 759 mmHg 60%
    23:00 +8°C° 0 mm 7 mps 759 mmHg 60%

    26 November, Monday

    Time Temperature Precipitation Wind Pressure Humidity
    00:00 +8°C° 0 mm 7 mps 759 mmHg 61%
    01:00 +8°C° 0 mm 7 mps 759 mmHg 61%
    02:00 +6°C° 0 mm 7 mps 759 mmHg 62%
    03:00 +6°C° 0 mm 7 mps 760 mmHg 62%
    04:00 +7°C° 0 mm 6 mps 760 mmHg 63%
    05:00 +9°C° 0 mm 7 mps 760 mmHg 57%
    06:00 +10°C° 0 mm 8 mps 760 mmHg 52%
    07:00 +12°C° 0 mm 9 mps 760 mmHg 46%
    08:00 +13°C° 0 mm 8 mps 760 mmHg 45%
    09:00 +13°C° 0 mm 8 mps 760 mmHg 43%
    10:00 +15°C° 0 mm 8 mps 760 mmHg 41%
    11:00 +15°C° 0 mm 8 mps 760 mmHg 41%
    12:00 +15°C° 0 mm 8 mps 760 mmHg 41%
    13:00 +16°C° 0 mm 8 mps 760 mmHg 40%
    14:00 +16°C° 0 mm 8 mps 760 mmHg 41%
    15:00 +16°C° 0 mm 8 mps 760 mmHg 42%
    16:00 +16°C° 0 mm 8 mps 760 mmHg 42%
    17:00 +15°C° 0 mm 7 mps 760 mmHg 46%
    18:00 +14°C° 0 mm 6 mps 761 mmHg 49%
    19:00 +13°C° 0 mm 5 mps 761 mmHg 53%
    20:00 +12°C° 0 mm 4 mps 761 mmHg 55%
    21:00 +11°C° 0 mm 4 mps 761 mmHg 58%
    22:00 +10°C° 0 mm 4 mps 761 mmHg 61%
    23:00 +10°C° 0 mm 4 mps 761 mmHg 62%
    Show more